Regional Weather Roundup
Issued by NWS New Orleans/Baton Rouge, LA

Home | Current Version | Previous Version | Graphics & Text | Print | Product List | Glossary On
Versions: 1 2 3 4 5 6 7 8 9 10 11 12 13 14 15 16 17 18 19 20 21 22 23 24 25 26 27 28 29 30 31 32 33 34 35 36 37 38 39 40 41 42 43 44 45 46 47 48 49 50
162
ASUS44 KLIX 202301
RWRLIX
NEW ORLEANS REGIONAL WEATHER ROUNDUP
NATIONAL WEATHER SERVICE NEW ORLEANS LA
500 PM CST SAT DEC 20 2014

NOTE: "FAIR" INDICATES FEW OR NO CLOUDS BELOW 12,000 FEET WITH NO
      SIGNIFICANT WEATHER AND/OR OBSTRUCTIONS TO VISIBILITY.
      SKY/WX - SKY CONDITION AND SIGNIFICANT WEATHER.
      TMP - AIR TEMPERATURE.     DP    - DEWPOINT TEMPERATURE.
      RH  - RELATIVE HUMIDITY.   PRES  - PRESSURE.
      HI  - HEAT INDEX.          WCI   - WIND CHILL INDEX.

*  THESE STATIONS ARE NOT NWS OR FAA STATIONS AND ARE NOT UNDER
   NWS QUALITY CONTROL.

LAZ038-040-048-061>063-065>067-069-210000-
SOUTHEAST LOUISIANA

CITY           SKY/WX    TMP DP  RH WIND       PRES   REMARKS
N.O. AUDUBON     N/A     52  49  90 MISG        N/A
N.O. INTL ARPT CLOUDY    52  47  83 NE16      30.12S
N.O. LAKEFRONT CLOUDY    54  48  80 N16       30.13R
N.O. DOWNTOWN* CLOUDY    54  45  71 N8        30.12S
SLIDELL        CLOUDY    52  47  83 N9        30.13R
BATON ROUGE    CLOUDY    50  46  86 NE7       30.15R
BOOTHVILLE     CLOUDY    54  52  93 N12G20    30.09S
BELLE CHASSE   CLOUDY    54  49  83 NE7       30.11R
BOGALUSA*        N/A     52  47  81 N6        30.16R
GALLIANO*      NOT AVBL
NEW ROADS*     NOT AVBL
GONZALES*      NOT AVBL
HAMMOND*       NOT AVBL
HOUMA*         CLOUDY    52  48  87 N9        30.11R
PORT FOURCHON* CLOUDY    55  52  88 NE13G21   30.12R

$$

MSZ070-080>082-210000-
SOUTHERN MISSISSIPPI

CITY           SKY/WX    TMP DP  RH WIND       PRES   REMARKS
MCCOMB         CLOUDY    51  44  77 CALM      30.14S
GULFPORT       CLOUDY    52  47  83 N8G16     30.12R
BILOXI         CLOUDY    51  49  90 NE9       30.12R
PASCAGOULA     CLOUDY    51  48  89 N9        30.12R

$$

COASTAL OBSERVATIONS
LAKE AND NEARSHORE STATIONS

STATION/POSITION TIME  TEMP    WIND        PRES    WAVE
                       AIR SEA DIR/SP/G            HT/PER
                 (UTC) (F)     (DEG/KT/KT) (MB)    (FT/S)
PASCAGOULA       2200   52      20/  8/ 11 1019.0
WAVELAND YACHT   2200   51      20/ 14/ 17 1019.0
GRAND ISLE       2200   55 60   50/ 10/ 15 1019.0
SOUTHWEST PASS   2200   56                 1018.4
NEW CANAL        2200   53 56   20/ 11/ 14 1020.2
SHELL BEACH      2200   53 57   10/ 17/ 19 1019.2

OFFSHORE STATIONS

STATION/POSITION TIME  TEMP    WIND        PRES    WAVE
                       AIR SEA DIR/SP/G            HT/PER
                 (UTC) (F)     (DEG/KT/KT) (MB)    (FT/S)
64 S DAUPHIN ISL 2300   65 74   50/ 17/ 21 1017.1    6/ 7

$$




USA.gov is the U.S. government's official web portal to all federal, state and local government web resources and services.